ONEWEB-0226, 48793

Orbit data source: Space-Track

ONEWEB-0226, 48793 is a payload satellite owned by One Web (NAA) (UK) in LEO that was launched on Fri, 28 May 2021 UTC via a SOYUZ-2-1B launch vehicle from the Vostochny Cosmodrome (VOSTO). Payload-class satellites include a variety of spacecraft equipped with specific instruments for various scientific and technological missions. These include communications satellites like Starlink; space stations such as the ISS; scientific satellites like the Hubble; Earth observation satellites from companies like Planet Labs, Umbra, and HawkEye 360; GPS; miniature CubeSats for education and research; and military/defense satellites.

Loading next visibility...
Identifier
48793, 2021-045AC
Orbit
LEO
Country
Flag of UKUK
Related business
Manufacturer
One Web
Mission
Operational Commercial Communications
Bus & Motor
ARROW, Unknown motor
Mass
148 kg wet, ~140 kg dry
Launch date (UTC)
2021-05-28 (5 years ago)
Launch vehicle
SOYUZ-2-1B
Launch site
Vostochny Cosmodrome (VOSTO)
Object type
Payload
Rocket body
Debris
Shape & HBR
Trap Box + 2 Pan, 6.7 m
Radar Cross Section
3.464 m², Large (>1 m²)

Expand to show TLE details & history
Last TLE update: 2 days ago

TLE from 2 days ago
0 ONEWEB-0226
1 48793U 21045AC  26171.47322006  .00000101  00000-0  23411-3 0  9990
2 48793  87.9009 258.5387 0001703 101.4768 258.6554 13.15550810244781
Epoch: 2026-06-20T11:21Z
TLE epoch observation values (Epoch: 2026-06-20T11:21:26.213Z)
Latitude
0.00003°
Longitude
179.49214°
Altitude
1,204.912 km
Speed
7.251 km/s
True Right ascension
17h 14m 09s
True Declination
0° 00' 00"
Sunlit
Object was in full shadow at epoch
Visualization orbit readout
Latitude
Unknown
Longitude
Unknown
Altitude
Unknown
Speed
Unknown
Apparent Right ascension
Unknown
Apparent Declination
Unknown
Sunlit
N/A
Visualization observer readout
Local Sidereal Time
21:50:03
Azimuth
Unknown
Elevation
Unknown
Doppler factor
Unknown
Orbital elements
Apogee altitude
1,200.164 km
Perigee altitude
1,197.584 km
Semi-major axis
7,577.011 km
Eccentricity
0.00017
Inclination
87.9009°
RAAN
258.5387°
Arg. of periapsis
101.4768°
True anomaly
258.63627°
Mean anomaly
258.6554°
Eccentric anomaly
258.64583°
Mean motion
3.29076 °/min
Orbital period
109.4 mins
BSTAR
0.00023411
Loading maneuver chart data...
Computing Atmospheric mass density...
Loading historical data...
Loading historical data...
Loading historical data...
Loading historical data...
Loading historical data...
Loading historical data...
Loading historical data...

Documentation

Showing up to 5 results
|